Location: Czekan�w
(50.3488°N, 18.7344°E)
Time: 06:31:24
(UTC+00:00)

NOSS 3-1 (C) - Pass Details

Date: 17 February 2020
Orbit: 759 x 1449 km, 63.4° (Epoch: 26 March)

Event Time Altitude Azimuth Distance (km) Brightness Sun altitude
Exits shadow 02:49:19 63° 214° (SSW) 1,433 4.0 -29.8°
Drops below altitude 10° 02:57:10 10° 156° (SSE) 3,476 6.4 -28.6°
Sets 03:00:14 0° 154° (SSE) 4,494 7.1 -28.2°
